Погода в Барсуковской

Россия / Ставропольский край     44°45′41″N   41°49′04″E
темп.,
°C
ветер,
м/с
пор.,
м/с
влажн.,
%
обл.,
%
осадки,
мм/ч
давл.,
гПа
погр.,
м
21 апреля, ср
ср2100:00+12сз4106296 0.0 1013580
03:00+9ссз358997 1.8 1015260
06:00+9ссв1392100 2.8 1017241
09:00+9сз2395100 4.9 1019288
12:00+10сз2289100 0.3 1020413
15:00+10зсз2290100 1.0 1020227
18:00+9ююв2394100 0.3 1021108
21:00+9вюв3596100 1.1 1022162
22 апреля, чт
чт2200:00+10вюв2393100 0.1 1021112
03:00+10в2491100 0.1 1021129
06:00+10в2591100 0.0 1021183
09:00+11в4789100 0.1 1022548
12:00+13в6777100 0.1 1021933
15:00+14вюв6773100 0.1 1021976
18:00+12вюв4982100 0.2 1021516
21:00+10в2493100 1.2 1021141
23 апреля, пт
пт2300:00+10вюв1195100 0.6 102119
03:00+10вюв1195100 0.8 102223
06:00+9з3696100 0.2 1023274
09:00+11зсз458593 0.2 1023569
12:00+15сз45604 0.0 10221414
15:00+17сз45505 0.0 10211692
18:00+14сз24665 0.0 1021114
21:00+10св1172100 0.0 102110
24 апреля, сб
сб2400:00+10вюв2273100 0.0 102016
03:00+10вюв1278100 0.0 101915
06:00+10ю238282 0.0 102080
09:00+14з2266100 0.0 1019614
12:00+17зсз34545 0.0 10191440
15:00+18зсз575128 0.0 10191860
18:00+15сз356611 0.0 1019195
21:00+12сз1269100 0.0 102017
25 апреля, вс
вс2500:00+11сз1173100 0.0 102013
03:00+10ссз118099 0.0 102010
06:00+10в118198 0.0 101926
09:00+14в4574100 0.0 1017769
12:00+14св4578100 0.3 1016737
15:00+12всв3794100 4.7 1015453
18:00+11всв2495100 3.4 1015224
21:00+10в2596100 3.4 1014159